Regional Weather Roundup
Issued by NWS

Home | Current Version | Previous Version | Text Only | Print | Product List | Glossary On
Versions: 1 2 3 4 5 6 7 8 9 10 11 12 13 14 15 16 17 18 19 20 21 22 23 24 25 26 27 28 29 30 31 32 33 34 35 36 37 38 39 40 41 42 43 44 45 46 47 48 49 50
000
ASUS43 KIND 100609
RWRIN

WEATHER ROUNDUP FOR INDIANA
NATIONAL WEATHER SERVICE INDIANAPOLIS IN
200 AM EDT THU JUL 10 2014

NOTE: "FAIR" INDICATES FEW OR NO CLOUDS BELOW 12,000 FEET WITH NO
SIGNIFICANT WEATHER AND/OR OBSTRUCTIONS TO VISIBILITY.

* - STATION DOES NOT REPORT WEATHER SUCH AS PRECIPITATION OR FOG.

+ - STATION NOT QUALITY CONTROLLED BY THE NATIONAL WEATHER SERVICE.
    USE DATA WITH CAUTION...ESPECIALLY DEWPOINT AND RELATIVE
    HUMIDITY OBSERVATIONS.

INZ001>003-010>013-019-020-100700-
NORTHWEST INDIANA

CITY           SKY/WX    TMP DP  RH WIND       PRES   REMARKS
GARY /AIRPORT/ CLEAR     62  60  94 CALM      30.09R
KNOX *+          N/A     55  52  92 N3        30.08S
LA PORTE +     PTCLDY    55  55 100 CALM      30.10R
6HR MIN TEMP:  55; 6HR MAX TEMP:  71;

MICHIGAN CITY+ CLEAR     55  55 100 CALM      30.09R
MONTICELLO +   MOCLDY    64  57  78 N3        30.07R
RENSSELAER +   CLEAR     59  57  94 CALM      30.09R
VALPARAISO     CLEAR     57  56  96 CALM      30.09R
6HR MIN TEMP:  57; 6HR MAX TEMP:  73;


$$

LMZ046-743>745-100700-
SOUTHERN LAKE MICHIGAN

STATION/POSITION TIME  TEMP WIND        PRES
                       AIR  DIR/SP/G
                 (UTC) (F)  (DEG/KT/KT) (MB)
MICHIGAN CITY    0600   64  120/  4/  5   N/A

$$

INZ004-005-014>016-021>024-100700-
NORTH CENTRAL INDIANA

CITY           SKY/WX    TMP DP  RH WIND       PRES   REMARKS
GOSHEN         CLEAR     60  55  83 N6        30.08R
6HR MIN TEMP:  60; 6HR MAX TEMP:  74;

LOGANSPORT +   PTCLDY    63  55  77 CALM      30.08S
PERU/GRISSOM   PTCLDY    65  60  82 N5        30.07R
6HR MIN TEMP:  65; 6HR MAX TEMP:  75;

ROCHESTER +    CLEAR     61  55  82 CALM      30.08R
SOUTH BEND     CLEAR     59  54  83 CALM      30.09R
6HR MIN TEMP:  59; 6HR MAX TEMP:  73; 6HR PCP: TRACE;

WARSAW +       CLEAR     55  54  94 CALM      30.08R

$$

INZ006>009-017-018-025>027-100700-
NORTHEAST INDIANA

CITY           SKY/WX    TMP DP  RH WIND       PRES   REMARKS
ANGOLA *+      CLEAR     59  55  88 N3        30.07S
AUBURN +       CLEAR     59  54  82 NW5       30.07S
FORT WAYNE     PTCLDY    63  55  75 NW3       30.07R
6HR MIN TEMP:  62; 6HR MAX TEMP:  74;

HUNTINGTON +   PTCLDY    61  56  82 N3        30.06R
6HR MIN TEMP:  61; 6HR MAX TEMP:  73;


$$

INZ028-029-035-036-043>045-051>053-100700-
WEST CENTRAL INDIANA

CITY           SKY/WX    TMP DP  RH WIND       PRES   REMARKS
GREENCASTLE +  CLEAR     59  59 100 CALM      30.07R
LAFAYETTE      CLEAR     64  58  80 N5        30.06R
6HR MIN TEMP:  63; 6HR MAX TEMP:  76;

TERRE HAUTE    CLEAR     61  58  90 CALM      30.06R
6HR MIN TEMP:  60; 6HR MAX TEMP:  77;


$$

INZ030>032-037>040-046>048-054>057-064-065-100700-
CENTRAL INDIANA

CITY           SKY/WX    TMP DP  RH WIND       PRES   REMARKS
CP ATTERBURY + CLEAR     59  57  94 CALM      30.06R
INDIANAPOLIS   CLEAR     63  57  81 W3        30.05R
6HR MIN TEMP:  63; 6HR MAX TEMP:  76;

-EAGLE CREEK   CLEAR     64  59  83 N3        30.05
6HR MIN TEMP:  64; 6HR MAX TEMP:  76;

KOKOMO *+      CLOUDY    66  57  72 N6        30.07R
MARION +       CLOUDY    67  55  65 NE8       30.07R
MT COMFORT *+  CLEAR     59 N/A N/A N5        30.06R
SHELBYVILLE    CLEAR     61  57  87 CALM      30.04R
6HR MIN TEMP:  61; 6HR MAX TEMP:  79;

ZIONSVILLE +   CLEAR     62  57  83 NE3       30.07R
6HR MIN TEMP:  61; 6HR MAX TEMP:  76;


$$

INZ033-034-041-042-049-050-058-059-100700-
EAST CENTRAL INDIANA

CITY           SKY/WX    TMP DP  RH WIND       PRES   REMARKS
MUNCIE         MOCLDY    63  58  83 CALM      30.06R
6HR MIN TEMP:  62; 6HR MAX TEMP:  76;


$$

INZ060-061-067>069-081>083-085>088-100700-
SOUTHWEST INDIANA

CITY           SKY/WX    TMP DP  RH WIND       PRES   REMARKS
EVANSVILLE     MOCLDY    73  62  68 N6        30.05R
6HR MIN TEMP:  73; 6HR MAX TEMP:  83;

HUNTINGBURG *+ CLEAR     68  61  77 N5        30.05R
6HR MIN TEMP:  66; 6HR MAX TEMP:  82;

WASHINGTON +   MOCLDY    64  64  97 CALM      30.05R
6HR MIN TEMP:  64; 6HR MAX TEMP:  78;


$$

INZ062-063-066-070>080-084-089>092-100700-
SOUTH CENTRAL AND SOUTHEAST INDIANA

CITY           SKY/WX    TMP DP  RH WIND       PRES   REMARKS
BLOOMINGTON    CLEAR     60  58  92 CALM      30.06
6HR MIN TEMP:  59; 6HR MAX TEMP:  78;

NORTH VERNON + PTCLDY    64  64 100 CALM      30.05  FOG

$$




USA.gov is the U.S. government's official web portal to all federal, state and local government web resources and services.